Terug naar catalogus

STARLINK-32535

ActiefCommunicatieVLEO
NORAD 62119·PAYLOAD·🇺🇸 United States

Gelanceerd Nov 27, 2024 vanaf Cape Canaveral Space Force Station

Loading…

Volgende Passages (komende 24 uur)

TLE

VersSource: CelesTrak SupGP

Epoch: Sep 15, 2026, 03:16 UTC

1 62119C 24222F   26258.13659722  .00055957  00000+0  20266-2 0  2585
2 62119  42.9999 143.0508 0001405 276.8839 307.4187 15.27552739    14

Volg STARLINK-32535 in realtime met AllMySat

Download on the App Store